NOAA 8 (13923 NORAD) Tracking and Keplerian Element Data

This shows tracking and keplerian element data for the satellite.

Feedback or suggestion? Click here.




ElementValue
Catalog13923
NameNOAA 8
Epoch Orbit17987
Epoch Day34.91215339
Epoch Year2025
RAAN41.4223
Inclination98.7379
Eccentricity0.0013743
Argument of Perigee276.4575
Mean Anonmoly83.5041
Mean Motion14.29533992
Decay Rate3.87E-06
L11 13923U 83022A 25034.91215339 .00000387 00000+0 16898-3 0 9992
L22 13923 98.7379 41.4223 0013743 276.4575 83.5041 14.29533992179873



Live tracking and technical data element details for NOAA 8 (NORAD 13923). NOAA 8 can be tracked NOW for your location showing map with azimuth and elevation plus other details from your city location.







IsCatalogInMostPopularTable: catalog: 13923, numindb: 406
Update: records affected: 1



GetName: 13923 NOAA 8

Hit Count: updated at: Thu, 15 May 2025 19:49:17 GMT